Time,TemperatureF,DewpointF,PressureIn,WindDirection,WindDirectionDegrees,WindSpeedMPH,WindSpeedGustMPH,Humidity,HourlyPrecipIn,Conditions,Clouds,dailyrainin,SoftwareType,DateUTC
2013-03-16 00:08:00,52.4,41.0,29.98,SW,219,11.0,-999.0,65,-99.99,,,0.00,weatherlink.com 1.10,2013-03-16 04:08:00,
2013-03-16 00:23:00,52.0,41.0,29.98,WNW,293,5.0,-999.0,67,-99.99,,,0.00,weatherlink.com 1.10,2013-03-16 04:23:00,
2013-03-16 00:38:00,52.2,41.0,29.96,WSW,256,9.0,-999.0,66,-99.99,,,0.00,weatherlink.com 1.10,2013-03-16 04:38:00,
2013-03-16 00:53:00,52.4,41.0,29.95,WSW,242,12.0,-999.0,66,-99.99,,,0.00,weatherlink.com 1.10,2013-03-16 04:53:00,
2013-03-16 01:08:00,52.7,41.0,29.95,WSW,240,18.0,-999.0,65,-99.99,,,0.00,weatherlink.com 1.10,2013-03-16 05:08:00,
2013-03-16 01:23:00,52.6,41.0,29.94,North,360,18.0,-999.0,65,-99.99,,,0.00,weatherlink.com 1.10,2013-03-16 05:23:00,
2013-03-16 01:38:00,51.9,42.0,29.93,NW,305,15.0,-999.0,68,-99.99,,,0.00,weatherlink.com 1.10,2013-03-16 05:38:00,
2013-03-16 01:53:00,52.0,42.0,29.92,West,263,19.0,-999.0,69,-99.99,,,0.00,weatherlink.com 1.10,2013-03-16 05:53:00,
2013-03-16 02:08:00,52.6,42.0,29.92,West,268,14.0,-999.0,68,-99.99,,,0.00,weatherlink.com 1.10,2013-03-16 06:08:00,
2013-03-16 02:23:00,51.9,42.0,29.91,North,360,14.0,-999.0,69,-99.99,,,0.00,weatherlink.com 1.10,2013-03-16 06:23:00,
2013-03-16 02:38:00,50.7,42.0,29.91,WSW,247,17.0,-999.0,73,-99.99,,,0.00,weatherlink.com 1.10,2013-03-16 06:38:00,
2013-03-16 02:53:00,51.6,42.0,29.90,West,273,17.0,-999.0,70,-99.99,,,0.00,weatherlink.com 1.10,2013-03-16 06:53:00,
2013-03-16 03:08:00,52.7,42.0,29.90,North,360,19.0,-999.0,67,-99.99,,,0.00,weatherlink.com 1.10,2013-03-16 07:08:00,
2013-03-16 03:23:00,53.5,41.0,29.89,North,360,19.0,-999.0,64,-99.99,,,0.00,weatherlink.com 1.10,2013-03-16 07:23:00,
2013-03-16 03:38:00,53.3,41.0,29.89,West,281,17.0,-999.0,64,-99.99,,,0.00,weatherlink.com 1.10,2013-03-16 07:38:00,
2013-03-16 03:53:00,53.4,41.0,29.88,West,277,18.0,-999.0,64,-99.99,,,0.00,weatherlink.com 1.10,2013-03-16 07:53:00,
2013-03-16 04:08:00,52.9,41.0,29.88,West,273,14.0,-999.0,65,-99.99,,,0.00,weatherlink.com 1.10,2013-03-16 08:08:00,
2013-03-16 04:23:00,52.1,41.0,29.87,WNW,282,9.0,-999.0,67,-99.99,,,0.00,weatherlink.com 1.10,2013-03-16 08:23:00,
2013-03-16 04:38:00,51.7,41.0,29.86,WSW,258,16.0,-999.0,67,-99.99,,,0.00,weatherlink.com 1.10,2013-03-16 08:38:00,
2013-03-16 04:53:00,51.8,41.0,29.86,WSW,255,9.0,-999.0,67,-99.99,,,0.00,weatherlink.com 1.10,2013-03-16 08:53:00,
2013-03-16 05:08:00,51.1,41.0,29.85,SW,236,10.0,-999.0,69,-99.99,,,0.00,weatherlink.com 1.10,2013-03-16 09:08:00,
2013-03-16 05:23:00,51.4,41.0,29.87,WSW,258,10.0,-999.0,68,-99.99,,,0.00,weatherlink.com 1.10,2013-03-16 09:23:00,
2013-03-16 05:38:00,52.8,41.0,29.87,WSW,249,8.0,-999.0,64,-99.99,,,0.00,weatherlink.com 1.10,2013-03-16 09:38:00,
2013-03-16 05:53:00,53.1,41.0,29.87,North,360,23.0,-999.0,64,-99.99,,,0.00,weatherlink.com 1.10,2013-03-16 09:53:00,
2013-03-16 06:08:00,52.7,42.0,29.88,SW,234,22.0,-999.0,66,-99.99,,,0.00,weatherlink.com 1.10,2013-03-16 10:08:00,
2013-03-16 06:23:00,52.3,42.0,29.87,WSW,249,15.0,-999.0,68,-99.99,,,0.00,weatherlink.com 1.10,2013-03-16 10:23:00,
2013-03-16 06:38:00,52.4,42.0,29.87,WNW,285,9.0,-999.0,68,-99.99,,,0.00,weatherlink.com 1.10,2013-03-16 10:38:00,
2013-03-16 06:53:00,52.8,42.0,29.86,WNW,288,12.0,-999.0,68,-99.99,,,0.00,weatherlink.com 1.10,2013-03-16 10:53:00,
2013-03-16 07:08:00,52.6,42.0,29.87,WSW,244,24.0,-999.0,68,-99.99,,,0.00,weatherlink.com 1.10,2013-03-16 11:08:00,
2013-03-16 07:23:00,53.0,42.0,29.86,North,360,23.0,-999.0,67,-99.99,,,0.00,weatherlink.com 1.10,2013-03-16 11:23:00,
2013-03-16 07:38:00,52.9,42.0,29.86,North,360,18.0,-999.0,66,-99.99,,,0.00,weatherlink.com 1.10,2013-03-16 11:38:00,
2013-03-16 07:53:00,52.6,42.0,29.86,SW,235,19.0,-999.0,67,-99.99,,,0.00,weatherlink.com 1.10,2013-03-16 11:53:00,
2013-03-16 08:08:00,52.8,42.0,29.85,SW,235,24.0,-999.0,66,-99.99,,,0.00,weatherlink.com 1.10,2013-03-16 12:08:00,
2013-03-16 08:23:00,52.8,42.0,29.86,North,360,14.0,-999.0,66,-99.99,,,0.00,weatherlink.com 1.10,2013-03-16 12:23:00,
2013-03-16 08:38:00,52.9,42.0,29.86,SW,235,10.0,-999.0,66,-99.99,,,0.00,weatherlink.com 1.10,2013-03-16 12:38:00,
2013-03-16 08:53:00,52.9,41.0,29.86,WSW,253,14.0,-999.0,65,-99.99,,,0.00,weatherlink.com 1.10,2013-03-16 12:53:00,
2013-03-16 09:08:00,53.1,42.0,29.86,West,268,9.0,-999.0,65,-99.99,,,0.00,weatherlink.com 1.10,2013-03-16 13:08:00,
2013-03-16 09:23:00,53.5,42.0,29.87,North,360,9.0,-999.0,65,-99.99,,,0.00,weatherlink.com 1.10,2013-03-16 13:23:00,
2013-03-16 09:38:00,54.1,42.0,29.86,WNW,288,15.0,-999.0,65,-99.99,,,0.00,weatherlink.com 1.10,2013-03-16 13:38:00,
2013-03-16 09:53:00,54.5,42.0,29.85,North,360,11.0,-999.0,64,-99.99,,,0.00,weatherlink.com 1.10,2013-03-16 13:53:00,
2013-03-16 10:08:00,55.0,42.0,29.84,SSE,167,16.0,-999.0,63,-99.99,,,0.00,weatherlink.com 1.10,2013-03-16 14:08:00,
2013-03-16 10:23:00,55.6,43.0,29.85,North,360,17.0,-999.0,63,-99.99,,,0.00,weatherlink.com 1.10,2013-03-16 14:23:00,
2013-03-16 10:38:00,56.2,43.0,29.84,SW,234,14.0,-999.0,62,-99.99,,,0.00,weatherlink.com 1.10,2013-03-16 14:38:00,
2013-03-16 10:53:00,56.3,43.0,29.84,West,267,17.0,-999.0,62,-99.99,,,0.00,weatherlink.com 1.10,2013-03-16 14:53:00,
2013-03-16 11:08:00,57.1,43.0,29.84,NNW,333,8.0,-999.0,60,-99.99,,,0.00,weatherlink.com 1.10,2013-03-16 15:08:00,
2013-03-16 11:23:00,57.3,43.0,29.83,WNW,284,16.0,-999.0,59,-99.99,,,0.00,weatherlink.com 1.10,2013-03-16 15:23:00,
2013-03-16 11:38:00,58.2,43.0,29.82,SW,235,13.0,-999.0,58,-99.99,,,0.00,weatherlink.com 1.10,2013-03-16 15:38:00,
2013-03-16 11:53:00,58.3,43.0,29.82,NW,311,11.0,-999.0,58,-99.99,,,0.00,weatherlink.com 1.10,2013-03-16 15:53:00,
2013-03-16 12:08:00,59.3,44.0,29.81,North,360,13.0,-999.0,57,-99.99,,,0.00,weatherlink.com 1.10,2013-03-16 16:08:00,
2013-03-16 12:23:00,58.9,43.0,29.80,WSW,254,10.0,-999.0,56,-99.99,,,0.00,weatherlink.com 1.10,2013-03-16 16:23:00,
2013-03-16 12:38:00,59.1,43.0,29.80,North,360,12.0,-999.0,55,-99.99,,,0.00,weatherlink.com 1.10,2013-03-16 16:38:00,
2013-03-16 12:53:00,59.3,43.0,29.80,West,281,15.0,-999.0,55,-99.99,,,0.00,weatherlink.com 1.10,2013-03-16 16:53:00,
2013-03-16 13:08:00,59.6,43.0,29.79,WNW,286,16.0,-999.0,54,-99.99,,,0.00,weatherlink.com 1.10,2013-03-16 17:08:00,
2013-03-16 13:23:00,60.6,43.0,29.79,North,360,12.0,-999.0,53,-99.99,,,0.00,weatherlink.com 1.10,2013-03-16 17:23:00,
2013-03-16 13:38:00,61.2,43.0,29.78,North,360,18.0,-999.0,51,-99.99,,,0.00,weatherlink.com 1.10,2013-03-16 17:38:00,
2013-03-16 13:53:00,61.1,42.0,29.78,NW,307,14.0,-999.0,50,-99.99,,,0.00,weatherlink.com 1.10,2013-03-16 17:53:00,
2013-03-16 14:08:00,61.3,42.0,29.78,WNW,284,10.0,-999.0,49,-99.99,,,0.00,weatherlink.com 1.10,2013-03-16 18:08:00,
2013-03-16 14:23:00,61.6,43.0,29.78,North,360,13.0,-999.0,50,-99.99,,,0.00,weatherlink.com 1.10,2013-03-16 18:23:00,
2013-03-16 14:38:00,61.7,43.0,29.77,West,271,14.0,-999.0,50,-99.99,,,0.00,weatherlink.com 1.10,2013-03-16 18:38:00,
2013-03-16 14:53:00,62.4,44.0,29.77,North,360,9.0,-999.0,51,-99.99,,,0.00,weatherlink.com 1.10,2013-03-16 18:53:00,
2013-03-16 15:08:00,63.2,42.0,29.75,WSW,244,16.0,-999.0,47,-99.99,,,0.00,weatherlink.com 1.10,2013-03-16 19:08:00,
2013-03-16 15:23:00,63.3,44.0,29.75,North,360,11.0,-999.0,49,-99.99,,,0.00,weatherlink.com 1.10,2013-03-16 19:23:00,
2013-03-16 15:38:00,63.6,43.0,29.75,North,360,17.0,-999.0,48,-99.99,,,0.00,weatherlink.com 1.10,2013-03-16 19:38:00,
2013-03-16 15:53:00,64.0,42.0,29.74,North,360,12.0,-999.0,45,-99.99,,,0.00,weatherlink.com 1.10,2013-03-16 19:53:00,
2013-03-16 16:08:00,64.1,43.0,29.74,North,360,15.0,-999.0,46,-99.99,,,0.00,weatherlink.com 1.10,2013-03-16 20:08:00,
2013-03-16 16:23:00,63.9,43.0,29.74,North,360,15.0,-999.0,47,-99.99,,,0.00,weatherlink.com 1.10,2013-03-16 20:23:00,
2013-03-16 16:38:00,64.2,43.0,29.74,WSW,250,17.0,-999.0,46,-99.99,,,0.00,weatherlink.com 1.10,2013-03-16 20:38:00,
2013-03-16 16:53:00,64.4,43.0,29.74,West,274,16.0,-999.0,46,-99.99,,,0.00,weatherlink.com 1.10,2013-03-16 20:53:00,
2013-03-16 17:08:00,64.1,43.0,29.74,North,360,27.0,-999.0,46,-99.99,,,0.00,weatherlink.com 1.10,2013-03-16 21:08:00,
2013-03-16 17:23:00,64.1,43.0,29.73,North,360,16.0,-999.0,46,-99.99,,,0.00,weatherlink.com 1.10,2013-03-16 21:23:00,
2013-03-16 17:38:00,64.0,43.0,29.73,North,360,14.0,-999.0,46,-99.99,,,0.00,weatherlink.com 1.10,2013-03-16 21:38:00,
2013-03-16 17:53:00,64.0,43.0,29.74,North,360,14.0,-999.0,47,-99.99,,,0.00,weatherlink.com 1.10,2013-03-16 21:53:00,
2013-03-16 18:08:00,63.7,43.0,29.73,West,263,16.0,-999.0,47,-99.99,,,0.00,weatherlink.com 1.10,2013-03-16 22:08:00,
2013-03-16 18:23:00,63.1,43.0,29.74,North,360,12.0,-999.0,49,-99.99,,,0.00,weatherlink.com 1.10,2013-03-16 22:23:00,
2013-03-16 18:38:00,62.6,44.0,29.75,WSW,254,15.0,-999.0,50,-99.99,,,0.00,weatherlink.com 1.10,2013-03-16 22:38:00,
2013-03-16 18:53:00,61.9,43.0,29.76,North,360,11.0,-999.0,51,-99.99,,,0.00,weatherlink.com 1.10,2013-03-16 22:53:00,
2013-03-16 19:08:00,61.1,44.0,29.77,North,360,14.0,-999.0,54,-99.99,,,0.00,weatherlink.com 1.10,2013-03-16 23:08:00,
2013-03-16 19:23:00,60.4,44.0,29.78,North,360,25.0,-999.0,55,-99.99,,,0.00,weatherlink.com 1.10,2013-03-16 23:23:00,
2013-03-16 19:38:00,59.6,45.0,29.79,NW,307,14.0,-999.0,58,-99.99,,,0.00,weatherlink.com 1.10,2013-03-16 23:38:00,
2013-03-16 19:53:00,59.1,45.0,29.80,WSW,251,12.0,-999.0,60,-99.99,,,0.00,weatherlink.com 1.10,2013-03-16 23:53:00,
2013-03-16 20:08:00,58.7,45.0,29.80,North,360,12.0,-999.0,61,-99.99,,,0.00,weatherlink.com 1.10,2013-03-17 00:08:00,
2013-03-16 20:23:00,57.8,46.0,29.80,North,360,14.0,-999.0,66,-99.99,,,0.00,weatherlink.com 1.10,2013-03-17 00:23:00,
2013-03-16 20:38:00,57.5,46.0,29.81,NNW,337,7.0,-999.0,66,-99.99,,,0.00,weatherlink.com 1.10,2013-03-17 00:38:00,
2013-03-16 20:53:00,56.3,47.0,29.81,North,360,20.0,-999.0,71,-99.99,,,0.00,weatherlink.com 1.10,2013-03-17 00:53:00,
2013-03-16 21:08:00,56.3,47.0,29.82,WSW,255,12.0,-999.0,72,-99.99,,,0.00,weatherlink.com 1.10,2013-03-17 01:08:00,
2013-03-16 21:38:00,55.5,48.0,29.83,North,360,13.0,-999.0,75,-99.99,,,0.00,weatherlink.com 1.10,2013-03-17 01:38:00,
2013-03-16 21:53:00,55.5,48.0,29.84,WNW,283,14.0,-999.0,75,-99.99,,,0.00,weatherlink.com 1.10,2013-03-17 01:53:00,
2013-03-16 22:08:00,55.7,48.0,29.83,North,360,10.0,-999.0,74,-99.99,,,0.00,weatherlink.com 1.10,2013-03-17 02:08:00,
2013-03-16 22:23:00,55.5,47.0,29.84,NW,310,10.0,-999.0,74,-99.99,,,0.00,weatherlink.com 1.10,2013-03-17 02:23:00,
2013-03-16 22:38:00,55.3,47.0,29.84,North,360,10.0,-999.0,74,-99.99,,,0.00,weatherlink.com 1.10,2013-03-17 02:38:00,
2013-03-16 22:53:00,55.0,47.0,29.84,North,360,13.0,-999.0,75,-99.99,,,0.00,weatherlink.com 1.10,2013-03-17 02:53:00,
2013-03-16 23:08:00,55.0,47.0,29.85,West,273,13.0,-999.0,75,-99.99,,,0.00,weatherlink.com 1.10,2013-03-17 03:08:00,
2013-03-16 23:23:00,54.8,47.0,29.85,North,360,7.0,-999.0,75,-99.99,,,0.00,weatherlink.com 1.10,2013-03-17 03:23:00,
2013-03-16 23:38:00,55.3,47.0,29.85,West,260,10.0,-999.0,74,-99.99,,,0.00,weatherlink.com 1.10,2013-03-17 03:38:00,
2013-03-16 23:53:00,55.1,47.0,29.85,West,263,9.0,-999.0,75,-99.99,,,0.00,weatherlink.com 1.10,2013-03-17 03:53:00,